Temp
17 17 17 17 18 18 19 18 18 19 19 19 19 20 20 21 20 20 20 20 20 20 20 21 21 20 20 20 20 21 21 21 21 21 22 22 22 22 22 22 22 22
17 17 17 17 18 19 20 20 19 19 19 19 19 19 20 20 20 20 20 20 20 20 20 20 20 20 20 20 20 20 21 21 21 22 22 22 22 22 22 22 22 22
17 17 17 17 18 18 19 19 19 19 19 19 19 20 20 20 20 20 20 20 20 20 20 20 20 20 20 20 20 20 21 21 21 21 22 22 22 22 22 22 22 22
17 17 17 18 18 18 18 18 19 18 18 19 19 20 20 20 20 20 20 20 20 20 20 20 20 20 19 20 20 20 21 21 21 21 21 22 22 22 22 22 22 22
17 17 18 18 17 18 18 18 18 18 18 19 19 20 20 20 20 20 20 20 20 20 20 20 20 20 19 20 20 20 20 21 21 21 21 22 22 22 22 22 22 21
17 17 17 18 17 17 18 18 18 18 19 19 19 20 20 20 20 20 20 20 20 20 20 20 20 20 20 20 20 20 20 21 21 21 21 22 22 22 22 22 22 21
17 17 17 17 17 17 18 18 19 19 19 19 19 19 20 20 20 20 20 20 20 20 20 20 20 20 20 20 20 20 20 20 21 21 21 21 22 22 22 22 22 21
17 17 17 17 17 17 18 18 18 19 19 19 19 20 20 20 20 20 20 20 20 20 20 20 20 20 20 20 20 20 20 20 21 21 21 21 22 22 22 22 21 21
18 17 17 17 17 17 18 18 18 18 19 19 19 19 20 20 20 20 20 20 20 20 20 20 20 20 20 20 20 20 20 20 20 21 21 21 21 22 22 22 21 21
17 17 17 17 17 17 18 18 18 18 19 19 19 19 20 20 20 20 20 20 20 20 20 20 20 20 20 20 20 20 20 20 20 21 21 21 21 21 22 22 21 21
17 17 17 17 17 17 17 18 18 18 19 19 19 19 20 20 20 20 20 20 20 20 20 20 20 20 20 20 20 20 20 20 20 21 21 21 21 22 22 22 21 21
17 17 17 17 17 17 17 18 18 18 19 19 19 19 19 20 20 20 20 20 20 20 20 20 20 20 20 20 20 20 20 20 20 21 21 21 21 22 22 22 21 21
17 17 17 17 17 17 17 18 18 18 18 18 18 19 19 19 20 20 20 19 19 19 20 20 20 20 20 20 20 20 20 20 20 20 21 21 21 21 22 21 21 22
17 17 17 17 17 17 17 18 18 17 17 17 16 17 19 19 20 20 19 19 19 19 20 20 19 20 20 20 20 20 20 20 20 20 21 21 21 21 21 21 21 22
17 17 17 17 17 17 17 18 17 17 17 17 16 16 18 19 20 19 19 19 19 19 20 20 20 20 20 20 20 20 20 20 20 20 20 20 21 21 21 21 21 22
17 17 17 17 17 17 17 17 18 17 17 17 16 16 17 18 19 19 19 19 19 19 20 20 20 20 20 20 20 20 20 20 20 20 20 21 20 20 21 21 21 21
18 17 17 17 17 17 17 17 17 17 17 17 16 15 16 16 17 17 18 19 20 19 19 20 20 20 20 20 20 20 20 20 20 20 20 21 20 20 20 21 21 21
17 17 17 17 17 17 18 17 17 17 17 17 16 15 16 16 16 17 18 19 19 20 20 20 20 20 20 20 20 20 20 20 20 20 20 20 20 20 20 20 21 21
17 17 17 17 17 17 18 17 17 17 17 17 16 16 16 16 16 17 17 18 19 20 20 20 20 20 20 20 20 21 21 21 20 20 20 20 21 20 20 20 20 21
16 16 17 17 17 17 17 17 17 17 17 17 17 16 16 16 17 17 17 17 18 19 19 19 20 20 20 20 21 21 21 21 21 20 20 20 20 20 20 20 20 21
15 16 16 16 16 16 17 17 17 17 17 17 17 16 16 17 17 17 17 17 18 18 18 19 20 20 20 20 21 21 21 21 20 20 20 20 20 20 20 20 20 21
15 15 15 16 16 16 17 17 17 17 17 17 17 16 16 17 17 17 17 17 17 18 18 18 19 20 20 20 20 20 20 20 20 19 19 20 20 20 20 20 20 20
15 15 15 15 15 16 17 17 17 17 17 17 17 16 16 16 16 16 16 17 17 17 17 18 19 19 19 20 20 20 20 20 19 19 19 19 19 19 20 20 20 20
16 16 16 15 15 15 16 16 16 16 16 16 16 16 16 16 16 16 17 17 17 17 17 17 18 19 19 19 19 19 19 19 19 19 18 18 19 19 19 20 21 21
16 16 17 17 16 16 16 16 16 16 16 17 16 16 16 16 16 16 16 16 17 17 17 18 18 19 19 19 19 19 19 19 18 18 18 18 18 19 19 19 19 19
15 15 16 16 16 16 16 16 16 16 16 17 16 16 16 15 15 16 16 16 17 17 18 18 19 19 19 19 19 19 19 19 17 17 17 17 17 18 17 17 17 17
Height
738 742 744 745 747 751 754 756 757 758 758 759 761 762 763 765 768 771 775 778 781 784 787 790 792 794 796 797 799 800 801 802 803 805 807 808 809 810 811 812 813 814
737 740 742 743 744 746 748 750 754 757 758 759 761 763 764 764 766 769 772 775 777 780 784 787 789 791 793 795 797 798 799 800 802 803 805 806 807 808 809 810 811 813
735 737 739 740 741 742 745 747 750 753 755 757 759 761 763 764 766 768 770 772 774 777 780 784 786 788 790 793 795 796 797 799 800 801 803 804 805 806 808 809 810 811
732 734 736 737 738 740 744 746 748 750 752 754 755 757 760 763 765 767 769 771 772 774 777 780 783 785 787 790 793 794 796 797 798 800 801 803 804 805 806 807 808 809
727 731 733 734 736 739 742 743 745 747 749 751 752 754 757 760 763 765 767 769 771 772 774 777 780 782 785 788 790 792 793 795 796 798 799 801 802 803 805 806 806 807
723 727 729 731 733 737 740 741 742 744 746 748 750 752 754 758 761 762 764 767 768 770 771 773 776 779 782 785 787 789 791 793 794 796 797 798 800 801 803 804 805 805
719 723 725 727 731 734 737 738 739 741 743 745 747 750 752 755 758 759 761 764 765 767 768 770 773 776 779 782 785 787 789 791 792 794 795 796 798 799 801 802 803 804
715 718 722 725 728 731 734 736 736 738 741 743 745 747 749 752 754 757 759 761 762 764 767 768 770 773 776 779 782 784 786 789 790 792 793 794 795 797 798 800 802 802
711 714 718 721 724 727 729 732 734 736 739 741 743 745 746 749 751 755 757 759 760 762 765 767 769 771 773 776 779 781 783 785 787 789 790 792 793 794 796 798 800 800
708 711 714 717 720 723 725 729 732 734 736 738 740 743 744 746 749 752 755 756 758 760 762 764 766 768 770 773 775 778 780 782 784 786 787 789 790 792 794 795 797 798
705 708 710 713 715 719 722 725 728 731 733 735 737 740 742 743 745 748 751 753 754 756 758 760 762 764 767 770 772 775 777 779 780 782 784 785 787 789 791 792 794 795
702 705 707 709 712 716 719 722 725 727 729 731 733 736 738 740 742 744 747 750 751 753 755 757 758 761 764 766 769 772 774 776 777 778 780 781 783 785 787 789 791 793
699 701 704 706 710 713 716 718 720 723 725 727 729 731 733 735 738 741 744 746 749 751 753 755 757 758 760 763 766 769 771 773 774 775 776 777 779 780 783 785 788 790
696 699 702 705 708 710 713 715 717 720 722 724 727 729 730 731 733 737 739 743 746 749 751 754 755 756 757 759 762 765 768 770 771 772 773 773 775 776 779 781 784 786
694 697 700 703 706 708 710 712 714 716 719 721 725 727 728 728 729 732 735 738 742 746 748 751 752 753 753 755 757 759 762 765 767 769 770 771 772 773 775 777 779 781
692 695 697 701 704 707 708 709 711 713 716 718 721 724 726 726 726 728 730 734 738 741 744 746 747 749 750 751 753 755 757 759 761 764 766 768 769 770 771 772 774 776
690 692 694 697 701 704 706 707 709 711 713 716 718 722 725 726 727 727 728 730 734 737 740 742 743 744 746 748 751 753 754 755 756 758 760 763 765 766 767 768 770 772
687 689 691 694 696 699 702 704 706 708 711 714 716 719 721 723 726 728 728 728 731 733 735 737 739 741 742 745 747 749 751 753 754 755 756 758 761 762 764 765 766 768
684 686 688 690 692 694 697 699 702 704 708 712 714 716 718 720 722 724 727 728 728 729 730 732 734 737 739 742 744 746 748 750 752 753 753 755 757 760 762 764 764 765
684 685 686 687 688 690 692 694 696 699 703 708 712 714 715 717 718 720 723 725 725 725 726 728 730 733 736 739 741 743 746 748 749 751 751 752 753 756 759 762 763 764
682 684 685 686 687 689 690 690 691 694 699 704 708 711 712 713 715 716 719 721 722 722 724 725 727 730 733 736 738 741 744 746 747 748 749 750 751 752 755 758 761 762
680 682 684 685 686 688 689 689 689 691 696 700 704 707 709 710 712 715 717 719 720 721 722 723 724 727 730 733 736 739 742 743 744 746 748 750 750 750 752 755 759 762
676 678 681 683 685 685 686 688 689 690 693 697 700 703 706 709 711 713 716 717 718 720 721 722 724 725 728 731 734 737 739 739 740 743 746 748 748 747 746 748 753 757
673 673 675 678 681 683 685 687 688 690 692 695 698 701 703 705 707 709 712 715 717 718 720 721 722 723 726 729 732 734 735 735 737 741 743 744 745 744 742 743 746 749
671 670 670 671 675 679 682 685 687 689 692 694 697 701 703 704 705 706 709 711 713 714 716 718 719 720 723 726 728 731 732 733 736 738 739 740 742 741 740 741 744 746
668 669 668 668 670 674 678 682 686 689 691 691 693 697 701 703 704 706 708 707 707 707 709 711 714 716 719 722 724 726 727 729 732 734 735 738 740 739 739 740 742 745
Wind_Speed
38 32 32 36 36 33 29 26 25 28 31 31 31 35 40 41 39 38 39 39 38 38 36 35 35 34 33 31 30 31 31 32 32 29 28 28 28 30 28 26 24 23
35 32 34 38 41 43 43 39 34 32 32 31 30 31 36 38 37 37 38 38 38 38 36 36 35 34 34 32 30 30 31 31 31 30 30 29 28 30 30 28 26 23
34 35 37 40 43 44 43 41 40 38 36 34 32 31 33 34 35 36 38 37 37 37 36 35 34 33 33 32 31 31 32 31 30 29 30 29 27 29 30 28 26 24
36 38 41 43 44 45 42 39 37 36 35 34 35 35 34 33 33 36 37 37 36 35 34 33 32 31 31 31 31 32 32 32 31 29 28 28 28 28 28 26 25 23
39 41 43 44 43 41 40 39 37 36 35 35 35 36 36 34 34 36 36 35 34 33 33 32 31 31 31 30 30 31 32 32 31 29 27 28 28 27 27 25 24 23
40 41 44 45 43 39 37 38 38 37 36 37 36 35 35 35 36 37 37 35 34 33 33 32 31 32 31 29 29 30 31 31 31 30 29 29 29 27 26 25 25 25
40 41 44 43 41 38 36 37 38 38 37 37 36 35 35 36 38 39 38 37 36 35 34 34 33 33 31 30 29 28 29 30 30 30 30 30 29 28 27 26 26 27
41 41 42 41 38 37 36 37 37 38 38 36 35 36 37 38 39 38 38 38 37 35 34 34 34 33 31 30 29 28 28 29 29 30 31 30 30 30 29 28 28 29
40 40 40 38 37 37 37 37 36 36 37 36 35 36 38 40 40 37 36 36 35 33 33 33 32 31 30 29 30 29 28 29 30 31 31 31 31 30 30 30 30 30
39 38 39 37 37 36 36 36 35 35 37 38 37 36 38 40 39 37 35 35 35 34 34 33 32 31 29 29 30 30 30 30 30 31 32 32 32 32 31 31 32 32
38 37 37 37 36 35 35 35 35 35 38 39 38 37 37 39 38 36 35 35 35 35 35 35 34 32 31 31 31 31 31 31 31 31 32 33 33 33 32 33 33 33
37 36 36 36 36 35 35 36 36 36 38 39 40 38 37 37 37 37 36 35 34 35 35 36 35 34 33 33 32 31 31 31 32 32 32 33 33 33 34 34 34 34
35 35 35 34 34 35 35 37 38 37 37 38 38 39 39 38 37 37 36 34 33 35 36 36 35 35 34 34 33 32 31 31 32 32 32 33 34 34 34 35 35 34
34 34 33 32 33 35 36 37 38 37 38 38 35 35 37 39 39 38 37 35 33 33 35 35 34 34 35 35 34 33 32 31 31 32 32 33 34 35 35 35 35 35
32 31 29 29 30 33 35 37 37 36 38 40 37 35 37 39 40 39 37 35 32 31 33 34 34 34 35 35 36 35 34 33 33 32 32 32 33 34 34 36 36 37
30 29 28 28 29 31 34 35 36 35 35 38 40 38 35 35 37 37 36 35 34 33 33 33 34 34 34 35 36 37 37 36 36 35 35 34 33 33 34 36 37 37
29 29 29 29 30 32 33 33 34 34 34 35 37 37 33 29 28 30 33 36 37 36 34 33 33 34 34 35 36 37 38 37 37 37 37 36 36 35 35 36 37 37
30 29 29 31 33 34 34 34 33 33 33 31 33 36 35 31 29 29 30 33 36 36 35 35 35 35 34 36 37 38 38 37 37 37 37 37 37 37 37 36 36 36
30 31 31 32 34 36 36 35 33 33 33 30 31 36 35 32 33 33 32 32 34 35 35 36 37 36 34 34 36 39 40 39 38 37 37 38 38 37 36 34 34 35
27 28 30 32 35 38 38 37 36 35 33 31 31 33 33 32 33 34 33 34 35 35 35 36 38 39 37 36 38 39 40 41 40 38 37 37 37 37 36 34 34 34
25 25 25 27 31 34 35 35 34 33 32 32 32 33 34 34 34 33 32 33 33 33 34 34 37 40 40 40 41 40 39 41 40 37 34 34 36 36 36 35 34 34
24 23 22 24 28 31 31 30 30 30 30 31 31 32 33 31 30 30 29 30 32 32 33 34 37 40 41 42 42 40 39 40 40 35 32 31 31 31 29 28 28 30
25 23 21 21 23 26 27 26 27 30 32 32 30 30 30 28 28 30 31 31 30 28 28 31 35 39 40 41 42 40 40 40 38 35 32 30 28 28 29 29 29 29
27 28 25 22 21 22 23 23 23 23 26 28 28 28 29 31 33 34 34 33 31 31 32 35 37 38 38 38 39 39 40 40 36 33 33 32 30 29 29 30 33 33
28 27 28 28 28 28 27 27 25 22 23 25 25 26 29 32 35 34 32 32 34 37 39 40 40 40 38 38 38 38 39 38 34 32 32 32 30 29 28 28 30 31
30 26 25 28 30 32 31 28 25 25 27 28 28 30 31 30 29 29 29 32 37 39 40 41 42 40 37 36 37 39 41 38 32 30 30 29 28 27 27 27 28 30
Wind_Direction
206 205 205 203 202 206 215 219 216 209 204 202 201 201 204 207 207 205 207 211 215 220 222 224 226 225 227 233 234 230 229 229 227 226 227 230 233 233 230 223 214 210
203 206 209 207 205 206 210 212 214 213 209 206 205 206 207 208 206 205 207 209 212 218 222 225 226 225 226 232 234 229 227 229 229 229 229 232 235 233 229 221 215 214
201 205 211 211 210 210 210 211 212 213 211 208 207 209 210 210 207 207 209 210 212 215 219 222 225 225 225 230 233 230 227 227 229 230 231 232 232 227 222 218 217 220
201 205 211 214 214 213 212 212 214 214 213 211 209 208 210 210 209 209 211 212 212 213 215 221 225 225 224 228 231 231 228 227 228 231 229 226 224 220 217 218 222 225
203 206 211 215 216 215 214 213 214 215 214 213 212 209 209 208 207 209 212 212 211 211 213 219 224 222 221 226 229 229 228 227 227 228 228 223 221 221 221 224 228 228
204 206 211 215 216 215 215 214 214 215 214 213 212 209 207 206 207 209 211 211 211 211 212 216 220 221 220 223 227 228 227 227 226 226 227 224 224 224 226 230 231 228
205 206 211 214 214 214 215 215 214 214 214 212 210 207 204 204 207 210 210 211 212 212 213 215 218 220 221 222 226 229 228 228 227 226 226 226 226 227 228 232 233 229
206 208 211 213 212 212 214 215 214 213 212 212 210 207 204 203 207 210 210 211 212 212 214 216 217 219 220 220 223 228 229 229 227 225 225 225 226 226 228 232 234 232
208 208 210 211 211 211 213 216 216 213 211 211 210 207 204 204 207 210 210 211 212 212 214 216 217 218 218 218 221 225 228 228 227 225 224 224 223 224 227 230 232 231
207 208 209 210 210 210 212 213 215 214 211 210 209 207 204 205 207 210 211 213 214 214 214 215 216 217 217 218 220 224 225 226 226 225 223 223 223 223 225 227 228 228
206 208 209 210 209 209 210 211 213 213 211 210 209 208 206 205 205 208 211 214 216 217 217 217 217 217 218 219 220 223 225 224 223 223 222 222 222 223 224 226 227 228
205 206 208 209 208 207 209 210 212 212 211 210 209 208 208 206 205 207 211 214 216 218 220 219 217 216 217 219 220 222 224 223 222 222 222 221 222 223 224 225 227 229
205 206 208 208 207 206 208 211 212 212 211 210 209 209 208 206 206 208 210 212 214 217 219 219 217 215 215 217 219 221 224 223 222 222 222 221 222 222 223 224 226 228
206 207 207 208 206 206 209 211 212 212 213 212 211 211 210 207 207 210 210 209 211 215 218 219 217 215 214 215 216 218 221 223 222 222 222 222 222 222 223 223 225 227
206 207 207 206 205 206 209 212 213 212 213 213 212 213 213 209 208 210 210 207 208 211 216 218 218 217 215 214 213 214 216 220 222 223 224 224 223 222 222 223 225 227
204 205 204 203 203 206 210 213 213 211 211 213 213 215 215 211 208 207 206 207 208 209 212 215 217 217 217 216 215 214 214 216 219 221 223 224 224 222 221 222 224 226
200 202 201 200 200 205 211 215 216 213 210 210 211 213 215 213 211 208 204 205 208 208 210 213 215 218 219 219 219 219 217 216 216 218 219 222 224 223 221 221 222 225
198 199 198 198 198 203 210 216 218 217 214 208 207 213 215 212 213 216 212 208 208 210 212 213 216 219 220 220 221 222 222 219 217 217 217 219 222 224 223 221 220 222
201 200 199 197 197 200 207 212 216 219 218 211 207 213 216 211 211 217 218 215 213 213 215 216 217 219 220 221 223 224 224 222 219 218 218 219 220 223 224 222 220 220
207 205 204 200 199 201 204 207 211 216 218 214 209 210 213 213 214 215 216 218 218 217 217 218 219 220 221 223 226 226 225 224 222 220 220 219 219 220 222 222 222 220
213 212 211 206 202 202 204 206 207 210 214 214 211 208 209 212 216 217 216 218 219 218 218 219 221 223 222 223 226 226 225 225 223 221 220 220 219 219 220 221 222 223
208 209 212 211 205 203 205 207 205 207 210 211 209 209 211 211 214 219 221 221 220 219 219 221 225 226 225 224 225 226 226 225 223 221 221 223 222 217 215 216 219 222
196 197 205 212 208 203 203 204 206 208 209 208 207 207 209 211 214 221 226 226 222 218 219 225 229 230 228 228 228 228 229 228 226 224 224 226 223 214 209 210 213 218
190 190 195 206 209 205 202 203 207 207 202 202 204 203 203 207 211 215 220 221 221 222 224 229 233 234 232 230 231 233 234 232 228 226 226 227 223 217 213 213 215 220
197 195 192 195 198 198 200 206 210 206 197 197 201 203 206 210 210 210 210 211 216 223 226 230 234 237 235 233 232 234 235 234 229 226 226 225 223 220 217 215 217 220
206 205 198 193 193 193 196 204 209 206 202 202 202 204 209 214 215 213 210 210 213 217 220 225 231 234 234 233 232 233 234 231 225 222 224 223 221 219 214 212 217 219